TimeCST,TemperatureF,Dew PointF,Humidity,Sea Level PressureIn,VisibilityMPH,Wind Direction,Wind SpeedMPH,Gust SpeedMPH,PrecipitationIn,Events,Conditions,WindDirDegrees,DateUTC
12:15 AM,17.6,7.7,65,30.30,10.0,NW,6.9,-,N/A,,Clear,320,2013-11-27 06:15:00
12:35 AM,17.2,7.5,66,30.30,10.0,NW,9.2,-,N/A,,Clear,320,2013-11-27 06:35:00
12:55 AM,16.7,7.3,67,30.30,10.0,NW,8.1,-,N/A,,Clear,320,2013-11-27 06:55:00
1:15 AM,16.5,7.0,66,30.30,10.0,NW,9.2,-,N/A,,Clear,320,2013-11-27 07:15:00
1:35 AM,16.2,6.8,67,30.30,10.0,NW,9.2,-,N/A,,Clear,320,2013-11-27 07:35:00
1:55 AM,15.8,6.8,68,30.31,10.0,NW,10.4,-,N/A,,Clear,320,2013-11-27 07:55:00
2:15 AM,15.8,6.6,67,30.31,10.0,NW,10.4,-,N/A,,Clear,320,2013-11-27 08:15:00
2:35 AM,15.8,6.4,67,30.31,10.0,NW,11.5,16.1,N/A,,Clear,320,2013-11-27 08:35:00
2:55 AM,15.4,6.3,67,30.31,10.0,NW,9.2,-,N/A,,Clear,320,2013-11-27 08:55:00
3:15 AM,15.3,6.3,68,30.31,10.0,NW,10.4,-,N/A,,Clear,320,2013-11-27 09:15:00
3:35 AM,14.9,6.1,68,30.31,10.0,NW,8.1,-,N/A,,Clear,320,2013-11-27 09:35:00
3:55 AM,14.9,6.1,68,30.31,10.0,NW,11.5,-,N/A,,Clear,320,2013-11-27 09:55:00
4:15 AM,14.9,5.9,68,30.32,10.0,NW,11.5,-,N/A,,Clear,320,2013-11-27 10:15:00
4:35 AM,14.7,5.9,68,30.32,10.0,NNW,11.5,-,N/A,,Clear,330,2013-11-27 10:35:00
4:55 AM,14.4,5.9,69,30.32,10.0,NNW,10.4,-,N/A,,Clear,330,2013-11-27 10:55:00
5:15 AM,14.0,5.9,70,30.33,10.0,NW,9.2,-,N/A,,Clear,320,2013-11-27 11:15:00
5:35 AM,13.8,5.9,71,30.33,10.0,NNW,11.5,-,N/A,,Clear,330,2013-11-27 11:35:00
5:55 AM,13.6,5.9,71,30.33,10.0,NNW,11.5,-,N/A,,Clear,330,2013-11-27 11:55:00
6:15 AM,13.5,5.7,71,30.34,10.0,NNW,11.5,-,N/A,,Clear,330,2013-11-27 12:15:00
6:35 AM,13.1,5.7,72,30.34,10.0,NW,9.2,-,N/A,,Clear,320,2013-11-27 12:35:00
6:55 AM,12.9,5.7,73,30.35,10.0,NW,6.9,-,N/A,,Clear,320,2013-11-27 12:55:00
7:15 AM,12.7,5.7,74,30.35,10.0,NW,8.1,-,N/A,,Clear,310,2013-11-27 13:15:00
7:35 AM,13.1,5.7,72,30.36,10.0,NW,9.2,-,N/A,,Clear,320,2013-11-27 13:35:00
7:55 AM,13.8,5.9,71,30.36,10.0,NNW,11.5,-,N/A,,Clear,330,2013-11-27 13:55:00
8:15 AM,14.7,6.1,69,30.37,10.0,NW,9.2,-,N/A,,Clear,320,2013-11-27 14:15:00
8:35 AM,15.8,6.3,66,30.37,10.0,NW,10.4,17.3,N/A,,Clear,320,2013-11-27 14:35:00
8:55 AM,16.7,6.1,63,30.36,10.0,NNW,13.8,-,N/A,,Clear,330,2013-11-27 14:55:00
9:15 AM,17.6,6.3,61,30.37,10.0,NNW,10.4,-,N/A,,Clear,330,2013-11-27 15:15:00
9:35 AM,18.5,6.6,60,30.36,10.0,NNW,9.2,-,N/A,,Clear,330,2013-11-27 15:35:00
9:55 AM,19.9,6.6,56,30.36,10.0,NNW,6.9,-,N/A,,Clear,340,2013-11-27 15:55:00
10:15 AM,21.4,6.6,53,30.37,10.0,NNW,8.1,-,N/A,,Clear,340,2013-11-27 16:15:00
10:35 AM,22.1,5.7,49,30.36,10.0,NW,6.9,-,N/A,,Clear,320,2013-11-27 16:35:00
10:55 AM,23.0,5.7,48,30.34,10.0,NW,9.2,-,N/A,,Clear,320,2013-11-27 16:55:00
11:15 AM,24.4,5.2,44,30.34,10.0,NNW,8.1,-,N/A,,Clear,330,2013-11-27 17:15:00
11:35 AM,24.6,4.6,42,30.34,10.0,WNW,4.6,-,N/A,,Clear,300,2013-11-27 17:35:00
11:55 AM,25.2,3.7,40,30.34,10.0,NNW,4.6,-,N/A,,Clear,340,2013-11-27 17:55:00
12:15 PM,25.5,4.3,40,30.33,10.0,NNW,4.6,-,N/A,,Clear,330,2013-11-27 18:15:00
12:35 PM,26.2,3.9,39,30.31,10.0,West,6.9,-,N/A,,Clear,270,2013-11-27 18:35:00
12:55 PM,26.6,3.4,37,30.31,10.0,West,3.5,-,N/A,,Clear,260,2013-11-27 18:55:00
1:15 PM,27.1,3.2,36,30.31,10.0,Calm,Calm,-,N/A,,Clear,0,2013-11-27 19:15:00
1:35 PM,27.9,3.6,35,30.30,10.0,WNW,6.9,-,N/A,,Clear,300,2013-11-27 19:35:00
1:55 PM,28.0,3.4,35,30.30,10.0,West,8.1,-,N/A,,Clear,280,2013-11-27 19:55:00
2:15 PM,27.7,2.7,34,30.28,10.0,NNW,6.9,-,N/A,,Clear,330,2013-11-27 20:15:00
2:35 PM,28.4,3.2,34,30.28,10.0,SW,8.1,-,N/A,,Clear,220,2013-11-27 20:35:00
2:55 PM,28.0,2.8,34,30.28,10.0,WSW,6.9,-,N/A,,Clear,240,2013-11-27 20:55:00
3:15 PM,27.9,2.5,34,30.27,10.0,WNW,5.8,-,N/A,,Clear,290,2013-11-27 21:15:00
3:35 PM,27.5,2.5,34,30.26,10.0,WSW,6.9,-,N/A,,Clear,240,2013-11-27 21:35:00
3:55 PM,27.5,3.0,35,30.26,10.0,SW,4.6,-,N/A,,Clear,220,2013-11-27 21:55:00
4:15 PM,27.1,3.6,37,30.25,10.0,WSW,5.8,-,N/A,,Clear,240,2013-11-27 22:15:00
4:35 PM,25.5,5.9,43,30.25,10.0,SSW,6.9,-,N/A,,Clear,210,2013-11-27 22:35:00
4:55 PM,24.8,6.4,46,30.25,10.0,SSW,4.6,-,N/A,,Clear,210,2013-11-27 22:55:00
5:15 PM,23.9,6.8,48,30.25,10.0,SSW,3.5,-,N/A,,Clear,200,2013-11-27 23:15:00
5:35 PM,23.7,8.2,52,30.25,10.0,South,4.6,-,N/A,,Clear,180,2013-11-27 23:35:00
5:55 PM,23.7,8.1,51,30.25,10.0,South,3.5,-,N/A,,Clear,180,2013-11-27 23:55:00
6:15 PM,22.6,7.0,51,30.24,10.0,South,4.6,-,N/A,,Clear,180,2013-11-28 00:15:00
6:35 PM,21.6,7.9,56,30.23,10.0,SSE,5.8,-,N/A,,Clear,160,2013-11-28 00:35:00
6:55 PM,21.9,7.7,54,30.23,10.0,SSE,6.9,-,N/A,,Clear,160,2013-11-28 00:55:00
7:15 PM,21.2,8.4,58,30.22,10.0,SSE,5.8,-,N/A,,Clear,160,2013-11-28 01:15:00
7:35 PM,20.8,8.6,59,30.22,10.0,South,5.8,-,N/A,,Clear,170,2013-11-28 01:35:00
7:55 PM,20.7,8.4,59,30.23,10.0,South,5.8,-,N/A,,Clear,180,2013-11-28 01:55:00
8:15 PM,21.0,9.3,61,30.23,10.0,South,4.6,-,N/A,,Clear,180,2013-11-28 02:15:00
8:35 PM,20.5,9.5,63,30.22,10.0,South,6.9,-,N/A,,Clear,170,2013-11-28 02:35:00
8:55 PM,21.6,9.5,60,30.20,10.0,SSE,10.4,-,N/A,,Clear,150,2013-11-28 02:55:00
9:15 PM,22.1,9.3,58,30.16,10.0,SSE,10.4,-,N/A,,Clear,160,2013-11-28 03:15:00
9:35 PM,23.0,9.1,55,30.20,10.0,South,9.2,-,N/A,,Clear,190,2013-11-28 03:35:00
9:55 PM,23.9,9.5,54,30.20,10.0,South,9.2,-,N/A,,Clear,180,2013-11-28 03:55:00
10:15 PM,24.3,9.5,53,30.22,10.0,South,8.1,-,N/A,,Clear,190,2013-11-28 04:15:00
10:35 PM,23.7,10.4,57,30.22,10.0,South,5.8,-,N/A,,Clear,180,2013-11-28 04:35:00
10:55 PM,23.9,10.4,56,30.20,10.0,SSE,10.4,-,N/A,,Clear,160,2013-11-28 04:55:00
11:15 PM,23.9,10.9,58,30.20,10.0,SSE,8.1,-,N/A,,Clear,150,2013-11-28 05:15:00
11:35 PM,23.9,11.5,59,30.20,10.0,SSE,5.8,-,N/A,,Clear,160,2013-11-28 05:35:00
11:55 PM,24.1,11.3,58,30.20,10.0,SSE,6.9,-,N/A,,Clear,160,2013-11-28 05:55:00